Flag for Maldives Weather past 2 weeks in Male, Maldives

Now
86 °F

Scattered clouds.


Feels Like: 93 °F
Forecast: 82 / 88 °F
Wind: 20 mph from Northeast

Location: Male Airport

Current Time: Jan 27, 2015 at 6:25:17 PM

Latest Report: Jan 27, 2015 at 5:00 PM


Visibility: N/A

Pressure: 29.80 "Hg

Humidity: 66%

Dew point: 73 °F

Location of MaleLocation

Historic Weather in Male — Graph

°F

Male temperature yesterday

Maximum temperature yesterday: 88 °F (at 11:00 AM)
Minimum temperature yesterday: 82 °F (at 12:00 AM)
Average temperature yesterday: 84 °F

Past Weeks' High & Low Weather Summary

 TemperatureHumidityPressure
High88 °F (Jan 13, 12:00 PM)89% (Jan 12, 5:00 PM)30.04 "Hg (Jan 12, 5:00 PM)
Low81 °F (Jan 13, 2:00 AM)59% (Jan 13, 12:00 PM)29.77 "Hg (Jan 27, 4:00 PM)
Average84 °F73%29.90 "Hg
* Reported Jan 12 5:00 PM — Jan 27 5:00 PM, Male, Weather by CustomWeather, © 2014

Note: Actual official high and low records may vary slightly from our data, if they occured in-between our weather recording intervals... More about our weather records

Advertising

Male weather history for previous 24 hours

 ConditionsComfort  
Time TempWeatherWind HumidityBarometerVisibility
5:00 PM
Jan 27
86 °FScattered clouds.20 mph66%29.80 "HgN/A
4:00 PM86 °FScattered clouds.21 mph70%29.77 "HgN/A
3:00 PM88 °FScattered clouds.20 mph66%29.80 "HgN/A
2:00 PM88 °FScattered clouds.18 mph66%29.80 "HgN/A
1:00 PM88 °FScattered clouds.18 mph70%29.83 "HgN/A
12:00 PM88 °FScattered clouds.17 mph66%29.86 "HgN/A
11:00 AM86 °FScattered clouds.14 mph70%29.89 "HgN/A
10:00 AM84 °FScattered clouds.16 mph74%29.92 "HgN/A
9:00 AM86 °FScattered clouds.14 mph66%29.92 "HgN/A
8:00 AM84 °FScattered clouds.14 mph74%29.92 "HgN/A
7:00 AM82 °FPartly sunny.15 mph74%29.89 "HgN/A
6:00 AM81 °FPassing clouds.14 mph84%29.89 "HgN/A
5:00 AM81 °FPassing clouds.14 mph84%29.86 "HgN/A
4:00 AM82 °FPassing clouds.13 mph79%29.86 "HgN/A
3:00 AM82 °FPassing clouds.14 mph79%29.86 "HgN/A
2:00 AM82 °FPassing clouds.17 mph79%29.89 "HgN/A
1:00 AM82 °FPassing clouds.17 mph79%29.89 "HgN/A
12:00 AM82 °FPassing clouds.17 mph74%29.89 "HgN/A
11:00 PM
Jan 26
82 °FPassing clouds.18 mph74%29.92 "HgN/A
10:00 PM82 °FPassing clouds.20 mph74%29.92 "HgN/A
9:00 PM82 °FPassing clouds.18 mph74%29.92 "HgN/A
8:00 PM82 °FPassing clouds.17 mph74%29.92 "HgN/A
7:00 PM82 °FPassing clouds.16 mph74%29.89 "HgN/A
6:00 PM82 °FPassing clouds.18 mph74%29.86 "HgN/A
Weather by CustomWeather, © 2014

See weather overviewHow to use our weather pages